sat.trackr.live / text

‹ back to catalog

STARLINK-4534

NORAD 53395 · 2022-097H

PAYLOAD ACTIVE UNKNOWN

§ Identity

Operator
Country
US
Launch date
2022-08-10
Launch site
AFETR
Launch vehicle
Mass (kg)
RCS (m²)

Purposes: comms

External: N2YO · Heavens-Above · Gunter

§ Orbital elements

Epoch: 2026-05-25T03:26:25.047744Z

Period
95.44 min
Inclination
53.2131°
Eccentricity
0.0001195
Mean motion
15.08831645 rev/d
Perigee alt
538.9 km
Apogee alt
540.6 km
Semi-major
6,917.9 km
B*
3.5248e-5
RAAN
140.9176°
Arg perigee
70.9980°
Mean anomaly
289.1141°
Rev number
21,005

§ Raw data

STARLINK-45341 53395U 22097H   26145.14334546  .00000273  00000+0  35248-4 0  99902 53395  53.2131 140.9176 0001195  70.9980 289.1141 15.08831645210054

JSON: /api/v1/satellites/53395 · /tle

For live sub-satellite position, see the globe view (requires WebGL).

§ Visibility from observer

Set your observer location to see the next 7 days of passes ≥ 10°. The values pass through the URL so the page stays shareable.

No JS? Fill the form by hand. The geolocation button needs JavaScript.